C/2018 C2 ( Lemmon )

Japanese version
Home page
Updated on May 21, 2018

---------------------------------------------------------------------

* Profile

Discovery Date February 5, 2018
Magnitude 19.9 mag
Discoverer Mount Lemmon Survey

* Pictures

* Orbital Elements

Epoch 2018 June 11.0 TT = JDT 2458280.5
T 2018 June 2.21886 TT                                  MPCW
q   1.9565693            (2000.0)            P               Q
z  -0.0009402      Peri.  134.13444     -0.57783191     +0.58836282
 +/-0.0000097      Node    91.14042     -0.81107649     -0.49116339
e   1.0018395      Incl.   34.45397     +0.09091320     -0.64232991
From 221 observations 2018 Jan. 28-Mar. 28, mean residual 0".3.

* Finding Charts

* Magnitudes Graph

        m1 = 8.0 + 5 log d + 25.0 log r

---------------------------------------------------------------------

The orbital elements are published on M.P.E.C. 2018-F152.
The charts are made with StellaNavigator Ver.10 (AstroArts).
The magnitudes graphs are made with Comet for Windows.

---------------------------------------------------------------------

Copyright(C) Seiichi Yoshida (comet@aerith.net). All rights reserved.